TimeCDT,TemperatureF,Dew PointF,Humidity,Sea Level PressureIn,VisibilityMPH,Wind Direction,Wind SpeedMPH,Gust SpeedMPH,PrecipitationIn,Events,Conditions,WindDirDegrees,DateUTC
12:15 AM,73.8,73.8,100,30.11,10.0,ESE,5.8,-,N/A,,Clear,110,2012-10-13 05:15:00
12:35 AM,73.4,73.4,100,30.11,10.0,ESE,6.9,-,N/A,,Clear,110,2012-10-13 05:35:00
12:55 AM,73.4,73.4,100,30.10,10.0,ESE,6.9,-,N/A,,Clear,120,2012-10-13 05:55:00
1:15 AM,73.4,73.4,100,30.10,10.0,ESE,6.9,-,N/A,,Clear,110,2012-10-13 06:15:00
1:35 AM,74.3,74.3,100,30.10,10.0,ESE,5.8,-,N/A,,Clear,120,2012-10-13 06:35:00
1:55 AM,73.4,73.4,100,30.09,10.0,ESE,6.9,-,N/A,,Clear,120,2012-10-13 06:55:00
2:15 AM,73.8,73.8,100,30.08,10.0,ESE,5.8,-,N/A,,Clear,120,2012-10-13 07:15:00
2:35 AM,73.9,73.9,100,30.08,10.0,ESE,6.9,-,N/A,,Clear,120,2012-10-13 07:35:00
2:55 AM,74.1,74.1,100,30.08,10.0,ESE,4.6,-,N/A,,Clear,120,2012-10-13 07:55:00
3:15 AM,73.6,73.6,100,30.08,10.0,ESE,5.8,-,N/A,,Scattered Clouds,120,2012-10-13 08:15:00
3:35 AM,73.2,73.2,100,30.07,10.0,SE,4.6,-,N/A,,Clear,140,2012-10-13 08:35:00
3:55 AM,73.4,73.4,100,30.06,10.0,SSE,3.5,-,N/A,,Clear,150,2012-10-13 08:55:00
4:15 AM,73.4,73.4,100,30.07,10.0,SSE,4.6,-,N/A,,Clear,150,2012-10-13 09:15:00
4:35 AM,72.7,72.7,100,30.06,10.0,SSE,4.6,-,N/A,,Clear,150,2012-10-13 09:35:00
4:55 AM,71.6,71.6,100,30.06,10.0,SE,5.8,-,N/A,,Clear,140,2012-10-13 09:55:00
5:15 AM,71.6,71.6,100,30.06,10.0,SE,4.6,-,N/A,,Clear,140,2012-10-13 10:15:00
5:35 AM,72.5,72.5,100,30.07,10.0,SE,4.6,-,N/A,,Clear,130,2012-10-13 10:35:00
5:55 AM,72.1,72.1,100,30.07,10.0,SE,6.9,-,N/A,,Clear,140,2012-10-13 10:55:00
6:15 AM,73.0,73.0,100,30.07,10.0,SSE,5.8,-,N/A,,Clear,150,2012-10-13 11:15:00
6:35 AM,73.4,73.4,100,30.06,10.0,SE,5.8,-,N/A,,Clear,140,2012-10-13 11:35:00
6:55 AM,73.4,73.4,100,30.07,10.0,SSE,5.8,-,N/A,,Clear,150,2012-10-13 11:55:00
7:15 AM,73.6,73.6,100,30.07,10.0,SE,5.8,-,N/A,,Clear,140,2012-10-13 12:15:00
7:35 AM,73.4,73.4,100,30.07,10.0,SE,6.9,-,N/A,,Clear,140,2012-10-13 12:35:00
7:55 AM,74.3,74.3,100,30.07,10.0,SSE,6.9,-,N/A,,Clear,150,2012-10-13 12:55:00
8:15 AM,75.6,75.6,100,30.07,10.0,SSE,6.9,-,N/A,,Clear,150,2012-10-13 13:15:00
8:35 AM,77.0,77.0,100,30.07,10.0,SSE,6.9,-,N/A,,Clear,150,2012-10-13 13:35:00
8:55 AM,79.2,77.9,96,30.08,10.0,SSE,5.8,-,N/A,,Clear,150,2012-10-13 13:55:00
9:15 AM,80.6,78.8,94,30.08,10.0,SSE,11.5,-,N/A,,Scattered Clouds,150,2012-10-13 14:15:00
9:35 AM,82.4,73.4,74,30.08,10.0,SSE,12.7,18.4,N/A,,Mostly Cloudy,150,2012-10-13 14:35:00
9:55 AM,84.0,73.4,70,30.09,10.0,SSE,12.7,20.7,N/A,,Mostly Cloudy,160,2012-10-13 14:55:00
10:15 AM,84.4,73.2,69,30.09,10.0,SSE,15.0,24.2,N/A,,Mostly Cloudy,150,2012-10-13 15:15:00
10:35 AM,82.4,71.6,70,30.09,10.0,SSE,15.0,23.0,N/A,,Mostly Cloudy,150,2012-10-13 15:35:00
11:15 AM,84.6,72.5,67,30.09,10.0,SSE,15.0,23.0,N/A,,Overcast,160,2012-10-13 16:15:00
11:35 AM,84.4,73.4,69,30.09,10.0,SSE,13.8,19.6,N/A,,Overcast,150,2012-10-13 16:35:00
11:55 AM,84.4,73.2,69,30.08,10.0,SSE,17.3,23.0,N/A,,Overcast,160,2012-10-13 16:55:00
12:35 PM,85.1,73.2,67,30.07,10.0,SSE,18.4,24.2,N/A,,Overcast,150,2012-10-13 17:35:00
12:55 PM,86.9,73.9,65,30.06,10.0,SSE,18.4,26.5,N/A,,Mostly Cloudy,150,2012-10-13 17:55:00
1:15 PM,87.1,73.2,63,30.05,10.0,SE,17.3,24.2,N/A,,Mostly Cloudy,140,2012-10-13 18:15:00
1:35 PM,88.2,72.9,60,30.04,10.0,SSE,13.8,25.3,N/A,,Overcast,150,2012-10-13 18:35:00
1:55 PM,87.1,72.5,62,30.03,10.0,SSE,18.4,26.5,N/A,,Overcast,150,2012-10-13 18:55:00
2:15 PM,87.1,71.6,60,30.02,10.0,SSE,16.1,23.0,N/A,,Overcast,150,2012-10-13 19:15:00
2:35 PM,87.4,71.4,59,30.01,10.0,SSE,15.0,23.0,N/A,,Overcast,150,2012-10-13 19:35:00
2:55 PM,88.3,71.1,56,30.01,10.0,SSE,19.6,24.2,N/A,,Mostly Cloudy,160,2012-10-13 19:55:00
3:15 PM,86.7,70.7,59,30.01,10.0,SSE,15.0,26.5,N/A,,Overcast,160,2012-10-13 20:15:00
3:35 PM,85.5,71.8,63,30.01,10.0,SSE,13.8,-,N/A,,Overcast,160,2012-10-13 20:35:00
3:55 PM,84.6,72.5,67,30.00,10.0,SSE,16.1,21.9,N/A,,Overcast,150,2012-10-13 20:55:00
4:15 PM,84.0,72.5,68,30.00,10.0,SSE,15.0,19.6,N/A,,Overcast,150,2012-10-13 21:15:00
4:35 PM,82.4,71.6,70,29.99,10.0,SE,16.1,21.9,N/A,,Overcast,140,2012-10-13 21:35:00
4:55 PM,83.8,72.5,69,29.98,10.0,SSE,18.4,23.0,N/A,,Overcast,150,2012-10-13 21:55:00
5:15 PM,82.4,71.6,70,29.98,10.0,SSE,15.0,19.6,N/A,,Overcast,160,2012-10-13 22:15:00
5:35 PM,83.3,72.9,71,29.97,10.0,SSE,15.0,20.7,N/A,,Overcast,150,2012-10-13 22:35:00
5:55 PM,82.8,72.5,71,29.97,10.0,SSE,12.7,21.9,N/A,,Overcast,160,2012-10-13 22:55:00
6:15 PM,82.6,72.7,72,29.97,10.0,SSE,10.4,19.6,N/A,,Overcast,150,2012-10-13 23:15:00
6:35 PM,82.0,73.2,75,29.98,10.0,SSE,10.4,17.3,N/A,,Mostly Cloudy,150,2012-10-13 23:35:00
7:15 PM,78.8,71.6,78,29.98,10.0,SE,6.9,-,N/A,,Scattered Clouds,140,2012-10-14 00:15:00
7:35 PM,79.3,73.4,82,29.99,10.0,SE,6.9,-,N/A,,Mostly Cloudy,140,2012-10-14 00:35:00
8:15 PM,78.8,73.4,83,30.00,10.0,SE,8.1,-,N/A,,Scattered Clouds,140,2012-10-14 01:15:00
8:35 PM,77.0,71.6,83,30.01,10.0,SE,6.9,-,N/A,,Scattered Clouds,140,2012-10-14 01:35:00
8:55 PM,77.0,71.6,83,30.01,10.0,SE,6.9,-,N/A,,Scattered Clouds,140,2012-10-14 01:55:00
9:15 PM,77.4,74.8,92,30.01,10.0,SE,8.1,-,N/A,,Clear,140,2012-10-14 02:15:00
9:35 PM,77.5,73.8,88,30.01,10.0,SE,6.9,-,N/A,,Clear,140,2012-10-14 02:35:00
9:55 PM,77.4,73.2,87,30.01,10.0,SSE,6.9,-,N/A,,Clear,150,2012-10-14 02:55:00
10:15 PM,77.4,73.2,87,30.01,10.0,SSE,6.9,-,N/A,,Clear,150,2012-10-14 03:15:00
10:35 PM,77.0,71.6,83,30.01,10.0,SSE,8.1,-,N/A,,Clear,150,2012-10-14 03:35:00
10:55 PM,78.1,73.0,84,30.01,10.0,SSE,6.9,-,N/A,,Clear,150,2012-10-14 03:55:00
11:15 PM,77.9,73.4,86,30.01,10.0,SSE,6.9,-,N/A,,Clear,160,2012-10-14 04:15:00
11:35 PM,77.9,73.9,88,30.00,10.0,SSE,6.9,-,N/A,,Clear,160,2012-10-14 04:35:00
11:55 PM,77.0,77.0,100,30.00,10.0,SSE,8.1,-,N/A,,Clear,160,2012-10-14 04:55:00